Wind_Speed
44 44 45 46 47 49 50 50 51 50 49 47 45 41 38 35 32 31 32 31 32 31 28 27 25 24 23 24 25 26 27 28 29 30 30 31 32 32 33 33 33 33 33
41 42 42 42 43 44 44 44 44 44 43 41 39 35 33 31 30 31 31 30 29 26 24 23 22 22 22 23 24 26 27 29 30 31 31 32 32 34 35 36 36 36 36
38 37 37 38 38 37 37 37 36 35 34 34 33 33 31 29 28 27 27 26 24 22 21 21 21 21 22 23 25 26 27 28 29 30 31 32 33 34 36 37 38 38 38
34 33 33 33 32 31 30 28 26 25 26 27 27 27 27 26 25 23 23 22 20 19 20 21 21 22 23 24 24 25 26 27 28 30 31 32 34 35 36 37 38 38 39
30 29 29 28 26 25 22 19 18 15 15 17 20 22 23 22 20 19 19 20 19 19 19 20 20 21 21 22 23 24 25 27 28 29 31 32 33 34 35 36 37 37 37
28 26 26 24 22 18 15 13 10 6 6 9 11 14 16 17 17 18 18 18 19 19 19 19 19 20 20 22 23 24 25 26 27 29 30 31 33 34 34 35 35 35 35
25 24 23 21 19 15 12 9 6 4 3 3 6 9 11 12 14 16 17 18 19 19 19 19 20 20 21 21 22 23 24 25 26 28 29 30 31 32 33 34 34 34 34
23 22 21 19 17 15 13 11 8 7 6 6 7 10 11 13 15 16 17 17 18 18 18 18 18 18 18 19 20 20 21 23 24 25 26 28 29 31 32 33 33 33 34
22 21 19 17 16 15 13 12 11 10 9 9 10 11 12 13 14 14 15 15 15 15 15 15 15 14 14 14 15 17 19 20 22 24 25 27 29 31 32 33 33 33 33
22 20 18 16 15 14 13 12 11 11 10 10 10 10 10 10 9 9 10 11 12 12 11 11 10 11 12 12 14 16 18 20 22 24 27 29 30 31 32 33 34 33 33
21 19 17 16 14 13 12 12 12 11 10 9 8 6 5 5 4 5 6 6 7 7 8 8 8 9 11 13 15 17 19 22 24 26 28 29 31 31 32 32 32 31 31
22 19 18 16 14 13 12 12 11 10 9 8 7 5 4 3 3 3 4 5 6 7 7 8 9 10 12 14 16 18 20 22 25 27 29 30 30 30 30 29 28 28 28
24 21 19 17 15 14 13 12 11 10 9 8 7 5 4 3 3 4 5 6 6 7 8 9 10 11 13 14 16 18 21 23 26 28 29 30 30 29 28 27 26 25 25
27 25 22 19 18 16 14 13 12 11 10 8 7 6 5 4 5 5 6 7 8 8 9 10 10 11 13 14 16 19 21 24 26 28 29 29 29 28 27 26 25 24 23
30 28 25 22 20 18 17 15 13 12 10 9 8 7 7 7 8 9 9 10 10 10 10 10 11 11 12 13 15 18 20 23 25 26 27 27 27 26 25 24 23 23 23
33 31 28 25 23 21 20 18 15 14 13 12 11 10 10 10 11 12 12 12 12 12 11 11 11 11 12 13 14 16 19 22 24 25 26 26 26 25 24 23 22 22 22
33 34 31 28 26 24 22 21 19 17 16 15 14 13 13 13 13 14 14 14 13 13 12 12 11 11 11 11 13 16 18 21 23 24 25 26 26 25 24 23 22 22 22
33 35 35 31 29 27 25 23 21 20 19 18 17 17 16 16 16 16 16 15 15 14 14 13 12 11 11 10 12 15 18 20 23 24 26 27 27 26 25 24 23 22 23
34 34 36 35 32 29 27 25 23 22 20 19 18 18 18 18 18 18 18 17 16 16 15 13 12 11 10 10 11 13 17 20 23 25 27 28 29 29 28 26 25 24 23
35 33 34 37 36 33 31 28 26 24 23 21 19 19 19 19 19 19 19 18 17 17 16 14 14 12 11 10 10 12 15 18 22 25 28 29 31 32 31 30 28 27 25
36 34 34 36 37 36 34 31 29 26 25 23 21 20 20 19 19 19 19 19 18 17 17 16 16 14 13 12 11 13 15 18 21 24 27 30 32 33 33 33 32 30 28
35 34 32 34 35 35 35 33 31 29 27 25 22 21 21 20 19 20 20 19 19 19 18 18 18 17 16 14 14 15 16 18 20 24 26 29 31 33 34 35 34 33 31
37 33 31 32 33 33 33 32 31 29 28 26 23 20 20 19 19 20 20 20 20 19 19 20 20 19 18 18 17 17 18 19 21 24 27 30 32 34 35 36 36 35 33
37 34 30 29 30 30 30 30 29 28 26 24 21 19 19 19 19 19 20 20 20 20 20 20 21 21 20 20 19 19 20 21 23 25 27 30 32 34 36 37 38 37 35
35 33 29 27 26 26 27 27 26 24 23 21 19 18 17 18 18 18 18 18 18 19 19 20 21 22 22 22 21 21 22 23 25 27 28 30 32 34 36 38 39 39 37
35 31 28 26 24 24 25 24 23 22 20 18 17 15 15 16 16 16 16 16 17 17 18 19 20 22 23 24 23 22 22 24 26 28 31 32 34 35 36 38 39 40 39
Wind_Direction
284 286 287 287 287 286 286 284 282 279 275 272 269 266 263 260 257 255 253 251 248 248 248 249 249 248 251 254 256 257 259 261 265 267 269 270 272 274 276 278 281 283 285
286 288 289 290 291 291 289 287 284 281 275 268 262 256 254 250 247 245 245 246 247 249 251 253 256 257 258 259 259 261 262 265 267 270 272 274 275 276 277 279 281 282 283
289 291 292 294 297 297 296 291 285 280 273 263 253 248 244 240 239 239 242 244 247 251 253 255 259 260 261 263 264 265 267 269 270 272 274 276 278 279 280 280 281 282 283
291 293 296 298 301 303 303 297 290 280 268 255 248 239 233 232 230 232 237 243 248 252 254 256 259 262 264 266 268 270 271 272 273 275 277 278 279 280 281 282 282 282 282
291 294 298 301 304 308 310 308 303 286 263 249 234 229 228 225 225 229 236 242 245 249 255 258 261 264 266 268 270 272 274 275 277 278 279 280 280 281 281 281 281 282 282
289 292 297 298 302 307 309 313 316 308 264 239 222 221 224 225 230 235 239 246 250 254 257 261 264 266 267 270 272 274 276 278 280 282 283 283 283 282 282 282 282 282 282
287 289 292 293 295 296 300 307 314 323 310 244 227 228 231 233 237 244 248 253 256 259 261 262 263 265 269 272 275 279 282 284 286 287 287 287 286 286 285 284 283 283 283
282 283 286 287 287 286 289 294 296 296 290 270 254 249 248 248 250 251 254 255 257 259 261 263 264 267 271 276 281 284 288 291 292 293 293 292 291 290 289 287 285 284 283
277 275 278 280 280 280 280 284 285 284 278 272 265 260 258 257 256 256 256 257 258 259 261 263 267 271 277 282 288 292 295 297 298 298 298 297 295 293 292 290 288 286 284
271 268 268 271 273 274 274 276 276 276 274 268 265 264 258 255 255 256 258 261 263 264 266 270 277 284 290 294 298 301 303 304 303 303 301 299 297 295 293 291 289 286 284
265 260 258 261 265 267 270 271 269 269 268 267 266 254 243 242 245 253 262 265 267 270 276 283 290 296 299 302 305 306 307 306 305 304 303 302 300 297 294 291 289 287 284
257 253 251 252 257 260 264 264 261 259 260 260 258 247 241 240 255 267 268 271 274 278 281 288 295 298 301 304 307 308 309 309 309 309 308 306 304 301 297 294 291 288 285
252 247 245 247 251 254 256 256 252 250 252 252 250 248 251 261 273 275 277 277 279 284 287 291 293 297 303 309 312 314 315 317 317 317 316 314 311 307 302 298 294 292 289
248 244 243 244 246 249 250 250 247 246 245 244 246 246 251 263 269 269 269 273 280 282 286 290 294 302 309 315 319 322 324 325 326 325 324 322 319 314 309 304 300 297 294
243 242 241 242 242 243 245 245 244 244 244 246 250 257 264 267 269 270 271 273 275 278 283 288 293 303 311 316 320 325 330 333 334 334 332 330 327 323 317 310 305 302 299
238 238 239 240 240 241 242 242 243 245 246 250 254 259 263 266 269 270 271 272 273 276 278 283 292 297 303 311 322 332 339 341 342 341 339 337 335 331 326 319 311 305 302
237 235 235 237 238 240 241 241 242 244 248 251 255 259 262 265 268 271 273 273 273 273 274 278 284 291 300 315 331 341 346 348 348 347 345 344 341 337 332 326 319 312 307
238 234 232 233 235 237 238 240 242 245 250 254 257 260 263 266 268 270 272 273 272 271 272 274 280 288 298 315 332 344 349 351 351 351 351 349 347 344 339 333 326 318 311
237 235 231 229 231 234 236 239 241 245 249 254 259 261 262 263 265 267 268 270 270 269 268 269 274 280 290 308 327 341 349 351 351 353 353 352 351 349 345 340 334 327 319
233 234 232 229 228 230 234 237 240 245 249 252 256 260 261 262 262 263 264 266 267 265 263 262 265 270 279 295 315 332 342 347 349 351 353 354 353 352 350 346 340 334 328
225 230 231 230 229 229 231 235 239 244 248 252 254 258 260 259 260 262 262 262 263 261 258 256 258 263 271 284 303 320 331 337 343 347 350 352 352 352 351 349 345 340 333
221 227 231 232 230 229 229 232 236 240 246 251 254 254 256 257 257 259 259 259 260 259 255 253 255 260 268 278 292 305 317 326 334 340 345 348 350 351 351 350 347 343 338
218 224 231 232 230 229 228 230 232 237 244 250 249 248 252 254 255 256 257 258 259 258 255 253 255 260 267 275 284 294 305 315 325 333 339 342 345 347 349 349 348 345 341
215 220 226 229 228 226 223 224 228 235 241 243 244 243 247 252 254 255 256 258 259 258 255 255 258 263 268 274 280 287 297 306 315 323 329 334 337 341 344 346 346 344 342
213 216 220 225 223 219 218 220 225 229 232 236 238 238 240 248 254 255 256 259 260 259 257 258 261 265 269 273 278 284 292 300 308 316 321 326 329 333 338 341 342 342 341
208 210 213 216 215 212 211 214 219 223 226 229 232 234 236 242 251 256 259 261 261 261 261 263 265 267 271 274 276 280 286 295 303 310 315 321 324 328 332 335 337 339 338
Height
5764 5761 5758 5754 5750 5746 5741 5737 5733 5731 5730 5730 5732 5733 5735 5736 5737 5738 5740 5741 5742 5743 5744 5745 5746 5747 5749 5751 5754 5756 5758 5760 5762 5762 5763 5763 5764 5764 5764 5764 5763 5763 5762
5754 5751 5747 5743 5738 5733 5729 5724 5720 5717 5716 5717 5719 5722 5725 5727 5729 5731 5733 5735 5736 5737 5738 5739 5741 5742 5744 5746 5748 5750 5752 5753 5754 5755 5755 5755 5755 5755 5754 5754 5754 5753 5753
5743 5740 5737 5733 5728 5723 5717 5712 5708 5705 5704 5706 5709 5713 5716 5719 5721 5724 5727 5728 5729 5731 5732 5734 5736 5737 5739 5741 5743 5744 5745 5746 5746 5747 5747 5747 5746 5745 5745 5744 5744 5743 5742
5734 5731 5728 5724 5719 5714 5708 5703 5699 5696 5696 5697 5701 5704 5708 5712 5715 5717 5720 5722 5724 5726 5728 5729 5731 5733 5734 5736 5737 5738 5738 5738 5738 5738 5738 5738 5737 5736 5736 5735 5734 5733 5732
5726 5724 5720 5717 5713 5708 5703 5699 5694 5692 5691 5693 5695 5699 5702 5706 5709 5711 5714 5717 5719 5721 5723 5725 5726 5728 5729 5730 5730 5731 5731 5731 5731 5730 5730 5729 5728 5727 5726 5725 5724 5722 5721
5719 5717 5714 5711 5708 5704 5701 5697 5694 5692 5691 5691 5693 5696 5699 5702 5705 5708 5710 5713 5715 5717 5718 5720 5721 5722 5722 5723 5723 5723 5723 5723 5722 5722 5721 5720 5719 5718 5716 5715 5714 5713 5711
5713 5711 5709 5707 5704 5702 5699 5696 5694 5692 5691 5692 5693 5695 5698 5700 5702 5704 5706 5708 5710 5712 5713 5714 5715 5715 5716 5716 5716 5715 5715 5714 5714 5713 5712 5711 5710 5708 5707 5705 5703 5702 5701
5707 5705 5704 5702 5701 5699 5697 5695 5694 5693 5692 5692 5693 5694 5695 5696 5698 5700 5702 5704 5705 5706 5707 5708 5709 5709 5709 5709 5709 5709 5708 5707 5707 5706 5704 5703 5701 5699 5697 5696 5694 5692 5691
5701 5700 5699 5697 5697 5696 5695 5693 5692 5691 5690 5690 5691 5692 5692 5694 5695 5696 5698 5699 5701 5702 5702 5703 5703 5704 5704 5704 5703 5703 5702 5702 5700 5699 5697 5695 5693 5691 5688 5686 5684 5683 5682
5695 5694 5693 5693 5692 5692 5691 5690 5690 5689 5688 5688 5688 5689 5689 5690 5691 5692 5694 5695 5696 5698 5698 5699 5699 5699 5699 5699 5699 5698 5697 5696 5694 5692 5690 5688 5685 5682 5679 5677 5675 5673 5671
5690 5689 5688 5688 5688 5688 5687 5687 5686 5686 5686 5685 5685 5686 5687 5687 5688 5689 5690 5692 5693 5694 5695 5695 5695 5695 5695 5695 5694 5693 5692 5690 5688 5686 5683 5680 5677 5673 5671 5668 5665 5663 5661
5683 5683 5683 5682 5683 5683 5683 5683 5683 5683 5683 5682 5683 5684 5685 5685 5686 5687 5688 5689 5690 5691 5692 5692 5692 5692 5692 5692 5690 5689 5687 5685 5682 5679 5675 5672 5668 5665 5661 5658 5656 5654 5652
5676 5677 5677 5677 5677 5678 5679 5679 5679 5680 5680 5680 5681 5682 5682 5683 5683 5684 5685 5686 5687 5688 5689 5689 5689 5689 5689 5687 5686 5684 5682 5679 5676 5672 5668 5663 5660 5656 5653 5650 5648 5646 5644
5669 5670 5670 5671 5672 5673 5674 5675 5676 5676 5677 5678 5678 5679 5680 5681 5681 5682 5683 5684 5685 5685 5686 5686 5686 5685 5684 5683 5681 5679 5677 5673 5669 5665 5661 5656 5652 5649 5645 5643 5640 5638 5637
5659 5661 5663 5665 5666 5667 5668 5670 5671 5673 5674 5675 5676 5676 5678 5678 5679 5680 5681 5681 5682 5682 5683 5683 5682 5682 5681 5680 5678 5675 5672 5669 5665 5660 5656 5651 5647 5643 5639 5636 5634 5632 5630
5649 5652 5655 5657 5659 5661 5662 5664 5666 5668 5669 5670 5672 5673 5674 5675 5676 5677 5678 5679 5679 5679 5679 5679 5679 5679 5678 5676 5674 5672 5669 5665 5661 5657 5652 5647 5643 5638 5635 5631 5629 5626 5624
5638 5642 5646 5649 5652 5654 5656 5658 5660 5663 5664 5666 5668 5669 5671 5672 5673 5673 5674 5675 5675 5675 5675 5676 5676 5675 5674 5672 5670 5668 5665 5662 5658 5654 5649 5644 5639 5635 5631 5627 5624 5621 5619
5626 5630 5635 5640 5643 5646 5649 5651 5654 5657 5659 5660 5662 5664 5666 5667 5668 5669 5669 5670 5670 5671 5671 5671 5671 5671 5670 5669 5667 5665 5662 5659 5656 5651 5647 5642 5637 5632 5627 5623 5620 5617 5614
5614 5619 5624 5630 5635 5638 5642 5645 5648 5650 5653 5655 5657 5658 5660 5661 5662 5663 5664 5665 5665 5666 5666 5667 5667 5667 5666 5665 5664 5662 5660 5657 5653 5649 5644 5639 5634 5629 5624 5620 5615 5612 5608
5602 5608 5613 5619 5625 5629 5633 5637 5641 5644 5646 5649 5651 5652 5654 5655 5656 5657 5658 5659 5660 5661 5661 5662 5663 5663 5662 5662 5661 5659 5657 5654 5651 5647 5642 5637 5632 5626 5621 5616 5611 5607 5603
5590 5597 5603 5608 5614 5620 5625 5629 5633 5636 5639 5642 5645 5646 5647 5649 5650 5652 5653 5654 5655 5656 5657 5657 5658 5658 5658 5658 5657 5655 5654 5651 5648 5644 5640 5635 5630 5624 5619 5613 5608 5603 5598
5579 5586 5593 5598 5604 5610 5616 5621 5625 5629 5632 5635 5638 5640 5640 5643 5644 5646 5647 5648 5649 5650 5651 5652 5653 5653 5654 5653 5653 5652 5650 5648 5645 5641 5637 5633 5628 5622 5617 5611 5605 5599 5594
5571 5578 5584 5590 5595 5601 5607 5612 5617 5622 5625 5628 5631 5633 5634 5636 5638 5640 5641 5642 5643 5644 5645 5647 5648 5648 5649 5649 5648 5647 5646 5644 5641 5638 5633 5629 5624 5619 5614 5608 5602 5596 5590
5563 5570 5577 5582 5587 5593 5599 5605 5610 5615 5618 5620 5623 5627 5628 5629 5632 5634 5635 5636 5637 5638 5640 5641 5642 5643 5643 5644 5643 5642 5641 5639 5636 5633 5630 5625 5620 5615 5610 5604 5599 5593 5587
5556 5564 5570 5575 5581 5587 5593 5598 5603 5608 5611 5614 5617 5620 5622 5624 5625 5628 5629 5631 5632 5633 5634 5635 5636 5637 5637 5637 5637 5637 5635 5633 5630 5627 5624 5621 5616 5611 5605 5600 5594 5588 5582
5550 5558 5564 5570 5576 5582 5588 5593 5598 5602 5606 5609 5612 5614 5617 5619 5620 5622 5624 5626 5627 5628 5629 5630 5630 5631 5631 5631 5631 5630 5629 5627 5624 5621 5618 5614 5610 5605 5600 5594 5588 5583 5577